DW5057 Weather Reports


Display with metric or nautical units.
time (UTC)temp
F
wind
direction
speed
MPH
gust
MPH
rain 1hr
in
rain 24hr
in
rain mn
in
humidity
%
barometer
mb
20260905195516 81 199 0.0 2.0 0.00 0.16 0.16 60 1010.6
20260905194517 82 236 0.0 1.0 0.00 0.16 0.16 59 1010.7
20260905193557 82 189 0.0 2.0 0.00 0.16 0.16 57 1010.8
20260905192517 83 209 0.0 2.0 0.00 0.16 0.16 57 1010.9
20260905191517 83 213 0.0 2.0 0.00 0.16 0.16 55 1011.0
20260905190518 84 158 0.0 2.0 0.00 0.16 0.16 55 1011.0
20260905185537 83 195 1.0 3.0 0.00 0.16 0.16 55 1011.1
20260905184517 83 192 0.0 2.0 0.00 0.16 0.16 56 1011.2
20260905183517 83 197 0.0 3.0 0.00 0.16 0.16 56 1011.3
20260905182518 83 154 0.0 2.0 0.00 0.16 0.16 58 1011.3
20260905181518 83 132 0.0 2.0 0.00 0.16 0.16 58 1011.3
20260905180518 83 134 0.0 2.0 0.00 0.16 0.16 55 1011.4
20260905175518 84 101 0.0 3.0 0.00 0.16 0.16 53 1011.5
20260905174518 83 306 0.0 2.0 0.00 0.16 0.16 52 1011.5
20260905173518 83 66 0.0 3.0 0.00 0.16 0.16 52 1011.6
20260905172519 83 134 0.0 3.0 0.00 0.16 0.16 54 1011.6
20260905171516 83 187 0.0 3.0 0.00 0.16 0.16 54 1011.7
20260905170516 83 183 0.0 3.0 0.00 0.16 0.16 50 1011.7
20260905165516 83 88 0.0 3.0 0.00 0.16 0.16 50 1011.8
20260905164517 83 53 1.0 3.0 0.00 0.16 0.16 53 1011.7
20260905163536 83 63 1.0 3.0 0.00 0.16 0.16 55 1011.8
20260905162517 83 42 0.0 3.0 0.00 0.16 0.16 55 1011.8
20260905161517 82 349 0.0 2.0 0.00 0.16 0.16 54 1012.0
20260905160517 81 86 1.0 2.0 0.00 0.16 0.16 57 1012.0
20260905155517 80 56 1.0 3.0 0.00 0.16 0.16 58 1012.0
20260905154517 80 57 0.0 3.0 0.00 0.16 0.16 60 1012.1
20260905153518 80 143 0.0 2.0 0.00 0.16 0.16 60 1012.1
20260905152518 79 153 0.0 3.0 0.00 0.16 0.16 62 1012.0
20260905151517 78 43 1.0 3.0 0.00 0.16 0.16 62 1012.1
20260905150518 77 33 0.0 2.0 0.00 0.16 0.16 65 1012.1
20260905145519 77 48 1.0 4.0 0.00 0.16 0.16 65 1012.1
20260905144518 78 354 0.0 2.0 0.00 0.16 0.16 65 1012.0
20260905143519 78 37 0.0 3.0 0.00 0.16 0.16 64 1011.9
20260905142519 78 41 0.0 3.0 0.00 0.16 0.16 65 1011.8
20260905141515 78 38 1.0 4.0 0.00 0.16 0.16 64 1011.6
20260905140516 77 39 1.0 3.0 0.00 0.16 0.16 66 1011.4
20260905135537 78 32 2.0 4.0 0.00 0.16 0.16 66 1011.4
20260905134516 76 61 1.0 3.0 0.00 0.16 0.16 69 1011.4
20260905133517 75 31 1.0 3.0 0.00 0.16 0.16 72 1011.3
20260905132525 75 0.0 0.0 0.00 0.16 0.16 74 1011.3
20260905131526 75 0.0 0.0 0.00 0.16 0.16 75 1011.4
20260905130527 75 61 0.0 1.0 0.00 0.16 0.16 76 1011.3
20260905125526 74 36 0.0 2.0 0.00 0.16 0.16 76 1011.2
20260905124526 74 168 0.0 2.0 0.00 0.16 0.16 76 1011.4
20260905123526 73 52 0.0 1.0 0.00 0.16 0.16 76 1011.5
20260905122527 73 38 0.0 2.0 0.00 0.16 0.16 76 1011.4
20260905121527 72 26 1.0 2.0 0.00 0.16 0.16 77 1011.4
20260905120527 72 350 0.0 1.0 0.00 0.16 0.16 83 1011.2
20260905115527 71 22 0.0 2.0 0.00 0.16 0.16 86 1010.9
20260905114527 70 19 1.0 2.0 0.00 0.16 0.16 90 1010.9
20260905113528 70 52 0.0 1.0 0.00 0.16 0.16 91 1010.8
20260905112528 70 44 0.0 2.0 0.00 0.16 0.16 92 1010.7
20260905111528 71 0.0 0.0 0.00 0.16 0.16 92 1010.7
20260905110528 71 187 0.0 1.0 0.00 0.16 0.16 92 1010.6
20260905105548 72 0.0 0.0 0.00 0.16 0.16 92 1010.3
20260905104528 72 0.0 0.0 0.00 0.16 0.16 92 1010.2
20260905103528 73 0.0 0.0 0.00 0.16 0.16 92 1010.2
20260905102529 73 0.0 0.0 0.00 0.16 0.16 92 1010.1
20260905101529 73 0.0 0.0 0.00 0.16 0.16 92 1009.9
20260905100529 73 0.0 0.0 0.00 0.16 0.16 92 1009.7
20260905095549 73 0.0 0.0 0.00 0.16 0.16 92 1009.7
20260905094550 73 36 0.0 1.0 0.00 0.16 0.16 92 1009.6
20260905093530 73 73 0.0 1.0 0.00 0.16 0.16 92 1009.8
20260905092530 73 37 0.0 2.0 0.00 0.16 0.16 92 1009.8
20260905091530 74 32 0.0 2.0 0.00 0.16 0.16 92 1009.8
20260905090530 74 0.0 0.0 0.00 0.16 0.16 92 1010.0
20260905085530 73 0.0 0.0 0.00 0.16 0.16 92 1010.1
20260905084530 73 0.0 0.0 0.00 0.16 0.16 92 1010.0
20260905083531 74 0.0 0.0 0.00 0.16 0.16 92 1009.8
20260905082531 74 0.0 0.0 0.00 0.16 0.16 92 1009.8
20260905081516 74 147 0.0 0.0 0.00 0.16 0.16 92 1009.7
20260905080536 74 0.0 0.0 0.00 0.16 0.16 92 1009.8
20260905075516 74 287 0.0 0.0 0.00 0.16 0.16 92 1009.8
20260905074516 74 174 0.0 3.0 0.00 0.16 0.16 92 1009.9
20260905073517 73 151 0.0 1.0 0.00 0.16 0.16 92 1009.9
20260905072517 73 133 0.0 0.0 0.02 0.16 0.16 91 1009.9
20260905071517 73 0.0 0.0 0.02 0.20 0.16 91 1009.8
20260905070517 73 0.0 0.0 0.03 0.26 0.16 91 1009.8
20260905065517 73 0.0 0.0 0.04 0.32 0.16 91 1009.9
20260905064518 74 35 0.0 2.0 0.05 0.40 0.16 91 1010.0
20260905063518 74 168 0.0 2.0 0.08 0.48 0.16 91 1010.5
20260905062538 74 41 1.0 3.0 0.11 0.54 0.14 91 1010.8
20260905061538 74 37 1.0 3.0 0.14 0.61 0.14 90 1011.0
20260905060518 74 0.0 0.0 0.12 0.60 0.12 90 1010.7
20260905055539 75 29 1.0 3.0 0.12 0.62 0.12 89 1010.7
20260905054518 76 49 1.0 3.0 0.11 0.61 0.11 88 1010.8
20260905053518 76 75 0.0 1.0 0.08 0.57 0.08 87 1010.9
20260905052518 77 144 0.0 1.0 0.03 0.53 0.03 85 1010.9
20260905051519 78 30 0.0 3.0 0.00 0.50 0.00 83 1011.1
20260905050519 79 215 1.0 2.0 0.00 0.50 0.00 82 1011.2
20260905045539 79 0.0 0.0 0.00 0.49 0.00 82 1010.9
20260905044520 79 0.0 0.0 0.00 0.49 0.00 82 1010.9
20260905043520 79 0.0 0.0 0.00 0.49 0.00 82 1010.9
20260905042519 79 0.0 0.0 0.00 0.49 0.00 82 1011.0
20260905041520 79 0.0 0.0 0.00 0.49 0.00 82 1011.1
20260905040520 79 0.0 0.0 0.00 0.49 0.00 82 1011.0
20260905035520 79 0.0 0.0 0.00 0.49 0.49 81 1010.9
20260905034521 79 0.0 0.0 0.00 0.49 0.49 81 1011.0
20260905033521 79 0.0 0.0 0.00 0.49 0.49 81 1011.2
20260905032521 80 0.0 0.0 0.00 0.49 0.49 80 1011.3
20260905031538 80 195 0.0 1.0 0.00 0.49 0.49 81 1011.5
20260905030519 80 0.0 0.0 0.00 0.49 0.49 81 1011.5
20260905025516 79 162 0.0 1.0 0.00 0.49 0.49 82 1011.6
20260905024516 79 356 0.0 1.0 0.00 0.49 0.49 83 1011.6
20260905023516 79 27 0.0 1.0 0.00 0.49 0.49 83 1011.6
20260905022536 79 0.0 0.0 0.00 0.49 0.49 83 1011.5
20260905021557 79 329 0.0 1.0 0.00 0.49 0.49 83 1011.5
20260905020516 79 218 0.0 1.0 0.00 0.49 0.49 83 1011.5
20260905015516 80 20 0.0 1.0 0.00 0.49 0.49 83 1011.5
20260905014517 80 316 0.0 0.0 0.00 0.49 0.49 83 1011.7
20260905013537 80 0.0 0.0 0.00 0.49 0.49 83 1011.6
20260905012517 80 215 0.0 0.0 0.00 0.49 0.49 83 1011.6
20260905011517 80 355 0.0 0.0 0.00 0.49 0.49 83 1011.6
20260905010518 80 0.0 0.0 0.00 0.49 0.49 83 1011.6
20260905005538 80 204 0.0 1.0 0.00 0.49 0.49 82 1011.6
20260905004518 80 255 0.0 0.0 0.00 0.49 0.49 82 1011.7
20260905003538 80 84 0.0 0.0 0.00 0.49 0.49 81 1011.6
20260905002518 80 0.0 0.0 0.00 0.49 0.49 80 1011.4
20260905001518 80 14 0.0 0.0 0.00 0.49 0.49 78 1011.2
20260905000518 80 341 0.0 1.0 0.00 0.49 0.49 77 1011.1
20260904235515 80 215 0.0 0.0 0.00 0.49 0.49 77 1011.0
20260904234516 81 255 0.0 1.0 0.00 0.49 0.49 76 1011.0
20260904233556 81 0.0 0.0 0.00 0.49 0.49 76 1011.0
20260904232516 81 49 0.0 0.0 0.00 0.49 0.49 75 1011.2
20260904231516 82 2 0.0 1.0 0.00 0.49 0.49 75 1011.3
20260904230517 82 317 0.0 0.0 0.00 0.49 0.49 75 1011.3
20260904225517 82 189 0.0 0.0 0.00 0.49 0.49 74 1011.7
20260904224517 82 0.0 0.0 0.00 0.49 0.49 74 1011.9
20260904223517 83 0.0 0.0 0.00 0.49 0.49 74 1012.1
20260904222517 83 145 0.0 1.0 0.00 0.49 0.49 73 1012.1
20260904221517 83 0.0 0.0 0.00 0.49 0.49 72 1012.1
20260904220538 83 352 0.0 1.0 0.00 0.49 0.49 72 1011.9
20260904215518 84 161 0.0 0.0 0.00 0.49 0.49 72 1011.8
20260904214518 84 176 0.0 1.0 0.00 0.49 0.49 71 1011.9
20260904213518 85 127 0.0 1.0 0.00 0.49 0.49 70 1011.7
20260904212519 85 98 0.0 1.0 0.00 0.49 0.49 70 1011.7
20260904211518 85 284 0.0 0.0 0.00 0.49 0.49 69 1011.8
20260904210518 85 0.0 0.0 0.00 0.49 0.49 68 1011.7
20260904205539 85 0.0 0.0 0.00 0.49 0.49 66 1011.9
20260904204516 86 146 0.0 0.0 0.00 0.49 0.49 66 1011.8
20260904203536 86 145 0.0 0.0 0.00 0.49 0.49 64 1011.9
20260904202516 85 117 0.0 1.0 0.00 0.49 0.49 64 1011.8
20260904201516 85 203 0.0 1.0 0.00 0.49 0.49 65 1012.0
20260904200537 86 218 0.0 1.0 0.00 0.49 0.49 63 1012.2